#timestamp,LO_Frequency,Hit,StdDev 
1548140445.2,286046998.8,E
1548140455.2,286046998.6,N
1548140475.9,286047001.0,P
1548140495.7,286047000.2,N
1548140515.6,286047000.5,N
1548140535.4,286046998.8,N
1548140555.2,286046998.5,N
1548140575.1,286046998.7,N
1548140576.0,286046998.7,N
1548140595.8,286046997.0,Y
1548140615.7,286046999.0,P
1548140635.5,286046998.3,P
1548140655.3,286047000.6,N
1548140675.2,286047000.8,N
1548140695.0,286046998.3,N
1548140695.9,286046998.3,N
1548140715.7,286046998.3,N
1548140735.6,286047000.7,N
1548140755.4,286046996.5,Y
1548140775.3,286046998.1,P
1548140795.1,286047000.6,N
1548140796.0,286047000.6,N
1548140815.8,286047000.8,N
1548140835.7,286046998.2,N
1548140855.5,286046998.9,N
1548140875.3,286046998.4,N
1548140895.2,286046998.7,N
1548140915.0,286046998.8,N
1548140915.9,286046998.8,N
1548140935.8,286046999.2,N
1548140955.6,286046996.5,Y
1548140975.4,286046999.3,P
1548140995.3,286046999.3,P
1548141015.1,286046999.0,P
1548141035.8,286046996.7,Y
1548141055.7,286046997.1,P
1548141075.5,286046996.7,P
1548141095.4,286046996.5,P
1548141115.2,286046996.8,Y
1548141135.0,286046999.8,P
1548141135.9,286046999.8,N
1548141155.8,286047000.5,N
1548141175.6,286047002.7,N
1548141195.4,286047000.1,N
1548141215.3,286047002.7,N
1548141235.1,286047001.0,N
1548141255.9,286047000.5,N
1548141275.7,286047000.7,N
1548141295.5,286047001.2,N
1548141315.4,286047001.1,N
1548141335.2,286047000.6,N
1548141355.0,286047000.4,N
1548141355.9,286047000.4,N
1548141375.8,286047002.2,N
1548141395.6,286047004.3,Y
1548141415.5,286047002.8,P
1548141435.3,286047002.8,N
1548141455.1,286047000.4,N
1548141475.9,286046999.9,N
1548141495.7,286046999.7,N
1548141515.5,286047002.0,N
1548141535.4,286047002.8,N
1548141555.2,286047002.5,N
1548141575.1,286047001.6,N
1548141576.0,286047001.6,N
1548141595.8,286046999.9,N
1548141615.6,286047002.7,N
1548141635.5,286047002.1,N
1548141655.3,286047002.6,N
1548141675.1,286047000.2,N
1548141695.9,286047000.3,N
1548141715.7,286047000.1,N
1548141735.6,286047001.0,N
1548141755.4,286047000.9,N
1548141775.2,286047000.6,N
1548141795.1,286047000.9,N
1548141796.0,286047000.9,N
1548141815.8,286046999.7,N
1548141835.6,286047002.3,N
1548141855.5,286047000.2,N
1548141875.3,286047002.6,N
1548141895.2,286047000.2,N
1548141915.9,286047000.6,N
1548141935.7,286047000.4,N
1548141955.6,286047002.5,N
1548141975.4,286047002.8,N
1548141995.2,286047001.4,N
1548142015.1,286047001.6,N
1548142016.0,286047001.6,N
1548142035.8,286047004.3,Y
1548142055.7,286047000.0,P
1548142075.5,286047000.1,N
1548142095.3,286047000.4,N
1548142115.2,286047000.3,N
1548142135.0,286047001.1,N
1548142135.9,286047001.1,N
1548142155.7,286047000.5,N
1548142175.6,286047000.9,N
1548142195.4,286047001.0,N
1548142215.3,286047000.8,N
1548142235.1,286047000.8,N
1548142236.0,286047000.8,N
1548142255.8,286046998.6,Y
1548142275.7,286046999.3,P
1548142295.5,286046999.0,N
1548142315.3,286046998.4,N
1548142335.2,286046998.3,N
1548142355.0,286046999.2,N
1548142355.9,286046999.2,N
1548142375.8,286046999.0,N
1548142395.6,286046996.6,Y
1548142415.4,286046999.6,P
1548142435.3,286046999.5,N
1548142455.1,286046999.1,P
1548142475.9,286046999.0,Y
1548142495.7,286047001.0,P
1548142515.5,286046998.2,N
1548142535.4,286046998.3,N
1548142555.2,286047001.0,N
1548142575.0,286046998.2,N
1548142575.9,286046998.2,N
1548142595.8,286046999.0,N
1548142615.6,286047001.1,N
1548142635.5,286047000.7,N
1548142655.3,286047000.3,N
1548142675.1,286047001.0,N
1548142695.9,286047001.2,N
1548142715.7,286047001.1,N
1548142735.5,286046999.9,N
1548142755.4,286047000.6,N
1548142775.2,286047000.4,N
1548142795.0,286047000.5,N
1548142796.0,286047000.5,N
1548142815.8,286046998.5,N
1548142835.6,286046999.1,N
1548142855.5,286046996.9,N
1548142875.3,286046996.6,N
1548142895.1,286046996.9,N
1548142915.9,286046999.2,N
1548142935.7,286046997.0,N
1548142955.5,286046996.5,N
1548142975.4,286046996.6,N
1548142995.2,286046999.0,N
1548143045.1,286046999.1,E
1548143055.0,286047000.8,N
1548143055.9,286047000.8,P
1548143075.8,286046998.3,P
1548143095.6,286047000.9,N
1548143115.4,286047000.2,N
1548143135.3,286047000.0,N
1548143155.1,286046999.7,N
1548143156.0,286046999.7,N
1548143175.8,286046999.8,N
1548143195.7,286047002.7,Y
1548143215.5,286046999.7,P
1548143235.4,286047000.0,N
1548143255.2,286046999.8,N
1548143275.0,286047000.1,N
1548143275.9,286047000.1,N
1548143295.8,286047002.6,Y
1548143315.6,286047002.7,P
1548143335.4,286047002.0,N
1548143355.3,286047001.6,N
1548143375.1,286047001.6,N
1548143395.9,286047001.9,N
1548143415.7,286047002.2,N
1548143435.5,286047001.8,N
1548143455.4,286047001.8,N
1548143475.2,286047001.9,N
1548143495.0,286047002.8,Y
1548143495.9,286047002.8,P
1548143515.8,286046999.4,N
1548143535.6,286046999.2,N
1548143555.5,286046999.5,N
1548143575.3,286046998.8,N
1548143595.1,286046999.1,N
1548143615.9,286046998.5,N
1548143635.7,286046998.5,N
1548143655.5,286046998.6,N
1548143675.4,286047000.8,N
1548143695.2,286046998.3,N
1548143715.0,286047000.0,N
1548143716.0,286047000.0,N
1548143735.8,286047000.3,N
1548143755.6,286047000.8,N
1548143775.5,286047001.2,N
1548143795.3,286047000.5,N
1548143815.1,286047000.7,N
1548143835.9,286046998.1,N
1548143855.7,286047001.0,N
1548143875.5,286047000.3,N
1548143895.4,286047000.4,N
1548143915.2,286047000.3,N
1548143935.1,286047001.0,N
1548143936.0,286047001.0,N
1548143955.8,286047000.3,N
1548143975.6,286047001.0,N
1548143995.5,286047000.0,N
